Rome Ciampino, Italy

5:42 PM CET on February 06, 2016 (GMT +0100)
Ciampino

Weather History for LIRA - October, 2010

Change the Weather History Date:

Thursday, October 14, 2010

  Actual Average Record
Temperature  
Mean Temperature 62 °F -  
Max Temperature 68 °F 66 °F 84 °F (2000)
Min Temperature 57 °F 48 °F 44 °F (1998)
Degree Days  
Heating Degree Days 2    
Growing Degree Days 12 (Base 50)    
Moisture  
Dew Point 58 °F    
Average Humidity 87    
Maximum Humidity 100    
Minimum Humidity 73    
Precipitation  
Precipitation 0.00 in 0.14 in - ()
Sea Level Pressure  
Sea Level Pressure 29.70 in    
Wind  
Wind Speed 4 mph ()    
Max Wind Speed 7 mph    
Max Gust Speed -    
Visibility 5.6 miles    
Events Rain , Thunderstorm    
Averages and records for this station are not official NWS values.
T = Trace of Precipitation, MM = Missing Value Source: Averaged Metar Reports

Daily Weather History Graph

Daily Weather History Graph

Search for Another Location

Airport or City:

Trip Planner

Search our weather history database for the weather conditions in past years. The results will help you decide how hot, cold, wet, or windy it might be!

Date:

Astronomy

Oct. 14, 2010 Rise Set
Actual Time 7:20 AM CEST 6:30 PM CEST
Civil Twilight 6:52 AM CEST 6:58 PM CEST
Nautical Twilight 6:20 AM CEST 7:30 PM CEST
Astronomical Twilight 5:48 AM CEST 8:02 PM CEST
Moon 2:13 PM CEST (10/14) 11:51 PM CEST (10/14)
Length of Visible Light 12h 05m
Length of Day
11h 09m
Waxing Crescent, 45% of the Moon is Illuminated
Oct 14
Waxing Crescent
Oct 14
First Quarter
Oct 23
Full
Oct 30
Last Quarter
Nov 6
New

Hourly Weather History & Observations

Time (CEST) Temp. Dew Point Humidity Pressure Visibility Wind Dir Wind Speed Gust Speed Precip Events Conditions
12:15 AM 60.8 °F 57.2 °F 88% 29.68 in 6.2 mi NW 1.2 mph - N/A Thunderstorm Scattered Clouds
12:45 AM 60.8 °F 59.0 °F 94% 29.68 in 6.2 mi NW 4.6 mph - N/A Thunderstorm Thunderstorm
1:15 AM 60.8 °F 57.2 °F 88% 29.68 in 3.7 mi SW 5.8 mph - N/A Rain , Thunderstorm Thunderstorms and Rain
1:45 AM 60.8 °F 57.2 °F 88% 29.68 in 5.0 mi East 2.3 mph - N/A Rain , Thunderstorm Light Thunderstorms and Rain
2:15 AM 60.8 °F 59.0 °F 94% 29.68 in 4.3 mi NE 5.8 mph - N/A Rain , Thunderstorm Light Thunderstorms and Rain
3:15 AM 60.8 °F 59.0 °F 94% 29.68 in 5.0 mi North 5.8 mph - N/A Rain Light Rain
3:45 AM 60.8 °F 59.0 °F 94% 29.68 in 5.0 mi North 4.6 mph - N/A Rain Light Rain
4:15 AM 60.8 °F 59.0 °F 94% 29.68 in 5.0 mi NNW 3.5 mph - N/A   Scattered Clouds
4:45 AM 59.0 °F 59.0 °F 100% 29.65 in 6.2 mi North 5.8 mph - N/A   Scattered Clouds
5:15 AM 59.0 °F 57.2 °F 94% 29.65 in 6.2 mi North 6.9 mph - N/A   Scattered Clouds
5:45 AM 59.0 °F 57.2 °F 94% 29.68 in 5.6 mi North 3.5 mph - N/A   Scattered Clouds
6:15 AM 57.2 °F 55.4 °F 94% 29.68 in 5.6 mi NNE 4.6 mph - N/A   Scattered Clouds
6:45 AM 57.2 °F 55.4 °F 94% 29.68 in 5.6 mi NE 4.6 mph - N/A   Scattered Clouds
7:15 AM 57.2 °F 55.4 °F 94% 29.68 in 5.0 mi NNE 4.6 mph - N/A   Scattered Clouds
7:45 AM 57.2 °F 53.6 °F 88% 29.68 in 4.3 mi NNE 4.6 mph - N/A   Scattered Clouds
8:15 AM 57.2 °F 53.6 °F 88% 29.68 in 3.7 mi NNE 5.8 mph - N/A   Scattered Clouds
8:45 AM 57.2 °F 53.6 °F 88% 29.68 in 3.7 mi NE 4.6 mph - N/A   Scattered Clouds
9:15 AM 57.2 °F 55.4 °F 94% 29.68 in 3.7 mi North 5.8 mph - N/A   Scattered Clouds
9:45 AM 59.0 °F 57.2 °F 94% 29.71 in 5.0 mi NE 6.9 mph - N/A   Scattered Clouds
10:15 AM 60.8 °F 57.2 °F 88% 29.71 in 5.6 mi NNE 6.9 mph - N/A   Scattered Clouds
10:45 AM 62.6 °F 59.0 °F 88% 29.71 in 5.0 mi North 6.9 mph - N/A   Scattered Clouds
11:15 AM 64.4 °F 59.0 °F 83% 29.71 in 5.6 mi North 6.9 mph - N/A   Scattered Clouds
11:45 AM 64.4 °F 59.0 °F 83% 29.71 in 6.2 mi NNE 6.9 mph - N/A   Scattered Clouds
12:15 PM 64.4 °F 57.2 °F 77% 29.71 in 6.2 mi North 5.8 mph - N/A   Scattered Clouds
12:45 PM 64.4 °F 59.0 °F 83% 29.71 in 6.2 mi North 6.9 mph - N/A   Scattered Clouds
1:15 PM 62.6 °F 59.0 °F 88% 29.71 in 6.2 mi NW 5.8 mph - N/A Rain Light Rain
1:45 PM 62.6 °F 59.0 °F 88% 29.71 in 6.2 mi WNW 3.5 mph - N/A Rain Light Rain
2:15 PM 62.6 °F 60.8 °F 94% 29.71 in 6.2 mi NNW 1.2 mph - N/A   Scattered Clouds
2:45 PM 64.4 °F 60.8 °F 88% 29.71 in 6.2 mi SSE 2.3 mph - N/A   Scattered Clouds
3:15 PM 66.2 °F 60.8 °F 83% 29.71 in 6.2 mi SSE 3.5 mph - N/A   Scattered Clouds
3:45 PM 66.2 °F 59.0 °F 78% 29.71 in 6.2 mi SSE 2.3 mph - N/A   Scattered Clouds
4:15 PM 68.0 °F 59.0 °F 73% 29.71 in 6.2 mi NE 2.3 mph - N/A   Scattered Clouds
4:45 PM 68.0 °F 60.8 °F 78% 29.71 in 6.2 mi West 3.5 mph - N/A   Scattered Clouds
5:15 PM 66.2 °F 59.0 °F 78% 29.71 in 6.2 mi West 5.8 mph - N/A   Scattered Clouds
5:45 PM 68.0 °F 60.8 °F 78% 29.71 in 6.2 mi West 6.9 mph - N/A   Scattered Clouds
6:15 PM 68.0 °F 59.0 °F 73% 29.71 in 5.0 mi WNW 6.9 mph - N/A   Scattered Clouds
6:45 PM 64.4 °F 57.2 °F 77% 29.71 in 5.0 mi WNW 3.5 mph - N/A   Scattered Clouds
7:15 PM 64.4 °F 59.0 °F 83% 29.71 in 6.2 mi NW 2.3 mph - N/A   Partly Cloudy
7:45 PM 62.6 °F 59.0 °F 88% 29.71 in 6.2 mi Calm Calm - N/A   Partly Cloudy
8:15 PM 62.6 °F 59.0 °F 88% 29.71 in 6.2 mi WNW 2.3 mph - N/A   Partly Cloudy
8:45 PM 62.6 °F 59.0 °F 88% 29.71 in 6.2 mi Calm Calm - N/A   Partly Cloudy
9:15 PM 60.8 °F 59.0 °F 94% 29.71 in 6.2 mi Calm Calm - N/A   Scattered Clouds
9:45 PM 60.8 °F 57.2 °F 88% 29.71 in 6.2 mi NNW 2.3 mph - N/A   Mostly Cloudy
10:15 PM 60.8 °F 57.2 °F 88% 29.74 in 6.2 mi NNE 2.3 mph - N/A   Mostly Cloudy
10:45 PM 60.8 °F 57.2 °F 88% 29.74 in 6.2 mi NNE 2.3 mph - N/A   Mostly Cloudy
11:15 PM 60.8 °F 55.4 °F 82% 29.74 in 6.2 mi ENE 3.5 mph - N/A   Mostly Cloudy
11:45 PM 60.8 °F 57.2 °F 88% 29.74 in 6.2 mi NE 3.5 mph - N/A   Mostly Cloudy